| time (UTC) | temp F | wind direction | speed MPH | gust MPH | rain 1hr in | rain 24hr in | rain mn in | humidity % | barometer mb |
| 20260504025518 | 45 | 0 | 0.0 | 2.0 | 0.00 | 0.00 | 0.00 | 68 | 1014.9 |
| 20260504025020 | 45 | 0 | 0.0 | 2.0 | 0.00 | 0.00 | 0.00 | 68 | 1014.9 |
| 20260504024534 | 45 | 196 | 0.0 | 2.0 | 0.00 | 0.00 | 0.00 | 66 | 1015.0 |
| 20260504024017 | 46 | 0 | 0.0 | 0.0 | 0.00 | 0.00 | 0.00 | 66 | 1014.9 |
| 20260504023518 | 46 | 0 | 0.0 | 1.0 | 0.00 | 0.00 | 0.00 | 66 | 1014.9 |
| 20260504023040 | 46 | 0 | 0.0 | 1.0 | 0.00 | 0.00 | 0.00 | 66 | 1015.0 |
| 20260504022517 | 46 | 0 | 0.0 | 0.0 | 0.00 | 0.00 | 0.00 | 63 | 1014.9 |
| 20260504022019 | 46 | 0 | 0.0 | 2.0 | 0.00 | 0.00 | 0.00 | 65 | 1014.9 |
| 20260504021536 | 46 | 0 | 0.0 | 2.0 | 0.00 | 0.00 | 0.00 | 66 | 1014.9 |
| 20260504021017 | 47 | 196 | 0.0 | 2.0 | 0.00 | 0.00 | 0.00 | 65 | 1014.8 |
| 20260504020517 | 47 | 0 | 0.0 | 2.0 | 0.00 | 0.00 | 0.00 | 65 | 1014.9 |
| 20260504020034 | 47 | 0 | 0.0 | 2.0 | 0.00 | 0.00 | 0.00 | 65 | 1014.8 |
| 20260504015518 | 47 | 0 | 0.0 | 2.0 | 0.00 | 0.00 | 0.00 | 64 | 1014.9 |
| 20260504015018 | 47 | 0 | 0.0 | 0.0 | 0.00 | 0.00 | 0.00 | 61 | 1014.9 |
| 20260504014534 | 48 | 0 | 0.0 | 0.0 | 0.00 | 0.00 | 0.00 | 63 | 1014.7 |
| 20260504014016 | 48 | 0 | 0.0 | 2.0 | 0.00 | 0.00 | 0.00 | 62 | 1014.8 |
| 20260504013516 | 48 | 0 | 0.0 | 2.0 | 0.00 | 0.00 | 0.00 | 62 | 1014.8 |
| 20260504013041 | 48 | 0 | 0.0 | 0.0 | 0.00 | 0.00 | 0.00 | 60 | 1014.7 |
| 20260504012519 | 49 | 0 | 0.0 | 0.0 | 0.00 | 0.00 | 0.00 | 60 | 1014.7 |
| 20260504012019 | 49 | 0 | 0.0 | 0.0 | 0.00 | 0.00 | 0.00 | 59 | 1014.7 |
| 20260504011539 | 49 | 0 | 0.0 | 0.0 | 0.00 | 0.00 | 0.00 | 59 | 1014.7 |
| 20260504011017 | 50 | 0 | 0.0 | 2.0 | 0.00 | 0.00 | 0.00 | 57 | 1014.6 |
| 20260504010516 | 50 | 0 | 0.0 | 2.0 | 0.00 | 0.00 | 0.00 | 54 | 1014.5 |
| 20260504010036 | 50 | 196 | 0.0 | 2.0 | 0.00 | 0.00 | 0.00 | 52 | 1014.6 |
| 20260504005517 | 51 | 0 | 0.0 | 0.0 | 0.00 | 0.00 | 0.00 | 55 | 1014.5 |
| 20260504005018 | 51 | 0 | 0.0 | 0.0 | 0.00 | 0.00 | 0.00 | 53 | 1014.5 |
| 20260504004536 | 52 | 0 | 0.0 | 0.0 | 0.00 | 0.00 | 0.00 | 52 | 1014.5 |
| 20260504004017 | 52 | 0 | 0.0 | 0.0 | 0.00 | 0.00 | 0.00 | 52 | 1014.5 |
| 20260504003516 | 53 | 0 | 0.0 | 0.0 | 0.00 | 0.00 | 0.00 | 47 | 1014.4 |
| 20260504003046 | 53 | 0 | 0.0 | 0.0 | 0.00 | 0.00 | 0.00 | 48 | 1014.3 |
| 20260504002516 | 54 | 0 | 0.0 | 0.0 | 0.00 | 0.00 | 0.00 | 47 | 1014.3 |
| 20260504002017 | 54 | 0 | 0.0 | 0.0 | 0.00 | 0.00 | 0.00 | 43 | 1014.3 |
| 20260504001540 | 55 | 0 | 0.0 | 0.0 | 0.00 | 0.00 | 0.00 | 44 | 1014.2 |
| 20260504001021 | 55 | 0 | 0.0 | 0.0 | 0.00 | 0.00 | 0.00 | 44 | 1014.2 |
| 20260504000522 | 56 | 0 | 0.0 | 0.0 | 0.00 | 0.00 | 0.00 | 43 | 1014.1 |
| 20260504000104 | 56 | 0 | 0.0 | 2.0 | 0.00 | 0.00 | 0.00 | 42 | 1014.1 |
| 20260503235517 | 57 | 0 | 0.0 | 2.0 | 0.00 | 0.00 | 0.00 | 42 | 1014.1 |
| 20260503235018 | 57 | 196 | 0.0 | 2.0 | 0.00 | 0.00 | 0.00 | 40 | 1014.1 |
| 20260503234540 | 57 | 0 | 0.0 | 2.0 | 0.00 | 0.00 | 0.00 | 40 | 1014.0 |
| 20260503234018 | 58 | 196 | 0.0 | 2.0 | 0.00 | 0.00 | 0.00 | 36 | 1014.0 |
| 20260503233516 | 58 | 194 | 0.0 | 2.0 | 0.00 | 0.00 | 0.00 | 37 | 1013.9 |
| 20260503233041 | 58 | 220 | 0.0 | 2.0 | 0.00 | 0.00 | 0.00 | 34 | 1013.9 |
| 20260503232519 | 59 | 215 | 0.0 | 2.0 | 0.00 | 0.00 | 0.00 | 37 | 1013.8 |
| 20260503232017 | 59 | 296 | 1.0 | 5.0 | 0.00 | 0.00 | 0.00 | 36 | 1013.8 |
| 20260503231541 | 59 | 0 | 1.0 | 5.0 | 0.00 | 0.00 | 0.00 | 35 | 1013.7 |
| 20260503231020 | 59 | 217 | 0.0 | 5.0 | 0.00 | 0.00 | 0.00 | 34 | 1013.7 |
| 20260503230521 | 59 | 13 | 2.0 | 5.0 | 0.00 | 0.00 | 0.00 | 32 | 1013.7 |
| 20260503230041 | 59 | 327 | 1.0 | 5.0 | 0.00 | 0.00 | 0.00 | 33 | 1013.7 |
| 20260503225520 | 60 | 117 | 0.0 | 4.0 | 0.00 | 0.00 | 0.00 | 35 | 1013.7 |
| 20260503225019 | 60 | 188 | 0.0 | 4.0 | 0.00 | 0.00 | 0.00 | 32 | 1013.8 |
| 20260503224539 | 60 | 159 | 1.0 | 4.0 | 0.00 | 0.00 | 0.00 | 35 | 1013.8 |
| 20260503224020 | 60 | 313 | 1.0 | 5.0 | 0.00 | 0.00 | 0.00 | 36 | 1013.9 |
| 20260503223517 | 60 | 49 | 1.0 | 5.0 | 0.00 | 0.00 | 0.00 | 32 | 1013.9 |
| 20260503223042 | 60 | 347 | 2.0 | 5.0 | 0.00 | 0.00 | 0.00 | 35 | 1013.8 |
| 20260503222518 | 60 | 196 | 1.0 | 5.0 | 0.00 | 0.00 | 0.00 | 32 | 1013.8 |
| 20260503222019 | 61 | 157 | 1.0 | 12.0 | 0.00 | 0.00 | 0.00 | 32 | 1013.8 |
| 20260503221549 | 61 | 0 | 1.0 | 12.0 | 0.00 | 0.00 | 0.00 | 36 | 1013.8 |
| 20260503221017 | 61 | 229 | 1.0 | 4.0 | 0.00 | 0.00 | 0.00 | 31 | 1013.8 |
| 20260503220521 | 61 | 59 | 1.0 | 4.0 | 0.00 | 0.00 | 0.00 | 33 | 1013.8 |
| 20260503220040 | 61 | 185 | 2.0 | 9.0 | 0.00 | 0.00 | 0.00 | 34 | 1013.9 |
| 20260503215517 | 61 | 51 | 1.0 | 9.0 | 0.00 | 0.00 | 0.00 | 33 | 1013.9 |
| 20260503215019 | 61 | 80 | 2.0 | 7.0 | 0.00 | 0.00 | 0.00 | 30 | 1013.8 |
| 20260503214541 | 61 | 76 | 1.0 | 7.0 | 0.00 | 0.00 | 0.00 | 34 | 1013.9 |
| 20260503214023 | 61 | 227 | 2.0 | 8.0 | 0.00 | 0.00 | 0.00 | 32 | 1013.8 |
| 20260503213521 | 61 | 230 | 2.0 | 8.0 | 0.00 | 0.00 | 0.00 | 34 | 1013.9 |
| 20260503213034 | 61 | 213 | 1.0 | 5.0 | 0.00 | 0.00 | 0.00 | 28 | 1013.8 |
| 20260503212518 | 61 | 19 | 1.0 | 6.0 | 0.00 | 0.00 | 0.00 | 28 | 1013.7 |
| 20260503212017 | 61 | 63 | 2.0 | 10.0 | 0.00 | 0.00 | 0.00 | 28 | 1013.7 |
| 20260503211540 | 61 | 90 | 3.0 | 10.0 | 0.00 | 0.00 | 0.00 | 29 | 1013.8 |
| 20260503211019 | 61 | 317 | 2.0 | 7.0 | 0.00 | 0.00 | 0.00 | 29 | 1013.8 |
| 20260503210517 | 61 | 22 | 1.0 | 5.0 | 0.00 | 0.00 | 0.00 | 34 | 1013.7 |
| 20260503210041 | 61 | 10 | 2.0 | 9.0 | 0.00 | 0.00 | 0.00 | 33 | 1013.9 |
| 20260503205519 | 62 | 350 | 2.0 | 9.0 | 0.00 | 0.00 | 0.00 | 29 | 1013.8 |
| 20260503205017 | 63 | 327 | 4.0 | 9.0 | 0.00 | 0.00 | 0.00 | 32 | 1013.8 |
| 20260503204540 | 63 | 36 | 1.0 | 5.0 | 0.00 | 0.00 | 0.00 | 34 | 1013.7 |
| 20260503204019 | 63 | 350 | 1.0 | 8.0 | 0.00 | 0.00 | 0.00 | 33 | 1013.7 |
| 20260503203518 | 63 | 65 | 1.0 | 8.0 | 0.00 | 0.00 | 0.00 | 30 | 1013.8 |
| 20260503203057 | 62 | 311 | 1.0 | 6.0 | 0.00 | 0.00 | 0.00 | 35 | 1013.9 |
| 20260503202519 | 62 | 284 | 1.0 | 7.0 | 0.00 | 0.00 | 0.00 | 31 | 1014.0 |
| 20260503202017 | 62 | 191 | 2.0 | 7.0 | 0.00 | 0.00 | 0.00 | 34 | 1014.1 |
| 20260503201541 | 62 | 13 | 2.0 | 11.0 | 0.00 | 0.00 | 0.00 | 35 | 1014.3 |
| 20260503201018 | 61 | 202 | 3.0 | 11.0 | 0.00 | 0.00 | 0.00 | 34 | 1014.3 |
| 20260503200517 | 61 | 96 | 2.0 | 7.0 | 0.00 | 0.00 | 0.00 | 34 | 1014.3 |
| 20260503200040 | 61 | 256 | 2.0 | 7.0 | 0.00 | 0.00 | 0.00 | 32 | 1014.5 |
| 20260503195517 | 62 | 277 | 2.0 | 6.0 | 0.00 | 0.00 | 0.00 | 33 | 1014.5 |
| 20260503195017 | 62 | 151 | 1.0 | 4.0 | 0.00 | 0.00 | 0.00 | 37 | 1014.6 |
| 20260503194542 | 62 | 342 | 1.0 | 5.0 | 0.00 | 0.00 | 0.00 | 34 | 1014.6 |
| 20260503194019 | 61 | 293 | 2.0 | 11.0 | 0.00 | 0.00 | 0.00 | 32 | 1014.8 |
| 20260503193518 | 61 | 316 | 3.0 | 11.0 | 0.00 | 0.00 | 0.00 | 30 | 1014.7 |
| 20260503193038 | 61 | 205 | 3.0 | 13.0 | 0.00 | 0.00 | 0.00 | 36 | 1015.0 |
| 20260503192517 | 60 | 190 | 3.0 | 13.0 | 0.00 | 0.00 | 0.00 | 31 | 1014.9 |
| 20260503192017 | 61 | 352 | 4.0 | 11.0 | 0.00 | 0.00 | 0.00 | 31 | 1015.0 |
| 20260503191537 | 61 | 342 | 3.0 | 11.0 | 0.00 | 0.00 | 0.00 | 35 | 1015.1 |
| 20260503191019 | 61 | 140 | 2.0 | 6.0 | 0.00 | 0.00 | 0.00 | 36 | 1015.1 |
| 20260503190524 | 60 | 180 | 2.0 | 6.0 | 0.00 | 0.00 | 0.00 | 34 | 1015.1 |
| 20260503190044 | 60 | 107 | 2.0 | 11.0 | 0.00 | 0.00 | 0.00 | 36 | 1015.1 |
| 20260503185518 | 60 | 286 | 2.0 | 11.0 | 0.00 | 0.00 | 0.00 | 35 | 1015.3 |
| 20260503185018 | 60 | 254 | 3.0 | 11.0 | 0.00 | 0.00 | 0.00 | 37 | 1015.2 |
| 20260503184534 | 59 | 200 | 1.0 | 10.0 | 0.00 | 0.00 | 0.00 | 39 | 1015.3 |
| 20260503184020 | 59 | 343 | 2.0 | 11.0 | 0.00 | 0.00 | 0.00 | 34 | 1015.3 |
| 20260503183519 | 60 | 144 | 2.0 | 11.0 | 0.00 | 0.00 | 0.00 | 34 | 1015.4 |
| 20260503183037 | 59 | 293 | 2.0 | 11.0 | 0.00 | 0.00 | 0.00 | 34 | 1015.5 |
| 20260503182517 | 59 | 199 | 1.0 | 6.0 | 0.00 | 0.00 | 0.00 | 39 | 1015.5 |
| 20260503182017 | 58 | 312 | 1.0 | 13.0 | 0.00 | 0.00 | 0.00 | 42 | 1015.5 |
| 20260503181535 | 58 | 54 | 1.0 | 13.0 | 0.00 | 0.00 | 0.00 | 38 | 1015.6 |
| 20260503181019 | 58 | 325 | 2.0 | 10.0 | 0.00 | 0.00 | 0.00 | 42 | 1015.5 |
| 20260503180519 | 58 | 177 | 3.0 | 13.0 | 0.00 | 0.00 | 0.00 | 38 | 1015.6 |
| 20260503180041 | 58 | 203 | 4.0 | 13.0 | 0.00 | 0.00 | 0.00 | 37 | 1015.6 |
| 20260503175018 | 59 | 23 | 2.0 | 11.0 | 0.00 | 0.00 | 0.00 | 36 | 1015.7 |
| 20260503174540 | 59 | 360 | 4.0 | 11.0 | 0.00 | 0.00 | 0.00 | 33 | 1015.7 |
| 20260503174022 | 59 | 184 | 2.0 | 9.0 | 0.00 | 0.00 | 0.00 | 35 | 1015.7 |
| 20260503173520 | 59 | 309 | 1.0 | 7.0 | 0.00 | 0.00 | 0.00 | 37 | 1015.8 |
| 20260503173051 | 59 | 54 | 2.0 | 8.0 | 0.00 | 0.00 | 0.00 | 34 | 1015.6 |
| 20260503172516 | 58 | 360 | 2.0 | 9.0 | 0.00 | 0.00 | 0.00 | 36 | 1015.8 |
| 20260503172019 | 58 | 342 | 2.0 | 9.0 | 0.00 | 0.00 | 0.00 | 32 | 1015.8 |
| 20260503171542 | 58 | 74 | 2.0 | 19.0 | 0.00 | 0.00 | 0.00 | 37 | 1015.7 |
| 20260503171023 | 58 | 223 | 4.0 | 19.0 | 0.00 | 0.00 | 0.00 | 38 | 1015.9 |
| 20260503170519 | 58 | 5 | 1.0 | 9.0 | 0.00 | 0.00 | 0.00 | 39 | 1015.9 |
| 20260503150515 | 54 | 46 | 1.0 | 6.0 | 0.00 | 0.00 | 0.00 | 41 | 1016.6 |
| 20260503131014 | 49 | 174 | 0.0 | 4.0 | 0.00 | 0.00 | 0.00 | 49 | 1016.8 |
| 20260503130520 | 48 | 330 | 2.0 | 8.0 | 0.00 | 0.00 | 0.00 | 51 | 1016.8 |
| 20260503110517 | 40 | 41 | 0.0 | 2.0 | 0.00 | 0.00 | 0.00 | 73 | 1015.9 |
| 20260503081538 | 40 | 323 | 0.0 | 2.0 | 0.00 | 0.00 | 0.00 | 75 | 1014.1 |
| 20260503081019 | 40 | 209 | 0.0 | 2.0 | 0.00 | 0.00 | 0.00 | 75 | 1014.0 |
| 20260503080519 | 40 | 0 | 0.0 | 2.0 | 0.00 | 0.00 | 0.00 | 75 | 1014.0 |
| 20260503072518 | 41 | 183 | 0.0 | 2.0 | 0.00 | 0.00 | 0.00 | 71 | 1013.5 |
| 20260503072018 | 41 | 337 | 1.0 | 2.0 | 0.00 | 0.00 | 0.00 | 74 | 1013.5 |
| 20260503071542 | 41 | 9 | 0.0 | 2.0 | 0.00 | 0.00 | 0.00 | 71 | 1013.4 |
| 20260503071017 | 41 | 317 | 0.0 | 4.0 | 0.00 | 0.00 | 0.00 | 74 | 1013.3 |
| 20260503070521 | 41 | 219 | 1.0 | 4.0 | 0.00 | 0.00 | 0.00 | 73 | 1013.3 |
| 20260503055019 | 43 | 0 | 0.0 | 2.0 | 0.00 | 0.00 | 0.00 | 71 | 1013.3 |
| 20260503054538 | 43 | 181 | 0.0 | 2.0 | 0.00 | 0.00 | 0.00 | 70 | 1013.3 |
| 20260503054019 | 43 | 0 | 0.0 | 2.0 | 0.00 | 0.00 | 0.00 | 70 | 1013.3 |
| 20260503053518 | 43 | 0 | 0.0 | 2.0 | 0.00 | 0.00 | 0.00 | 69 | 1013.3 |
| 20260503053039 | 44 | 0 | 0.0 | 2.0 | 0.00 | 0.00 | 0.00 | 69 | 1013.4 |
| 20260503052518 | 44 | 207 | 0.0 | 2.0 | 0.00 | 0.00 | 0.00 | 69 | 1013.3 |
| 20260503052018 | 44 | 0 | 0.0 | 2.0 | 0.00 | 0.00 | 0.00 | 68 | 1013.3 |
| 20260503051534 | 44 | 0 | 0.0 | 2.0 | 0.00 | 0.00 | 0.00 | 68 | 1013.3 |
| 20260503051018 | 45 | 0 | 0.0 | 2.0 | 0.00 | 0.00 | 0.00 | 64 | 1013.3 |
| 20260503050518 | 45 | 209 | 0.0 | 2.0 | 0.00 | 0.00 | 0.00 | 65 | 1013.3 |
| 20260503050041 | 45 | 190 | 0.0 | 1.0 | 0.00 | 0.00 | 0.00 | 65 | 1013.4 |
| 20260503045519 | 46 | 0 | 0.0 | 1.0 | 0.00 | 0.00 | 0.00 | 65 | 1013.3 |
| 20260503045018 | 46 | 0 | 0.0 | 2.0 | 0.00 | 0.00 | 0.00 | 63 | 1013.4 |
| 20260503044539 | 46 | 0 | 0.0 | 2.0 | 0.00 | 0.00 | 0.00 | 63 | 1013.4 |
| 20260503044018 | 46 | 0 | 0.0 | 2.0 | 0.00 | 0.00 | 0.00 | 60 | 1013.5 |
| 20260503043518 | 47 | 311 | 0.0 | 4.0 | 0.00 | 0.00 | 0.00 | 59 | 1013.5 |
| 20260503043038 | 47 | 159 | 0.0 | 4.0 | 0.00 | 0.00 | 0.00 | 59 | 1013.5 |
| 20260503042518 | 47 | 44 | 0.0 | 2.0 | 0.00 | 0.00 | 0.00 | 62 | 1013.6 |
| 20260503042019 | 47 | 0 | 0.0 | 2.0 | 0.00 | 0.00 | 0.00 | 62 | 1013.6 |
| 20260503041538 | 47 | 0 | 0.0 | 2.0 | 0.00 | 0.00 | 0.00 | 60 | 1013.6 |
| 20260503041017 | 47 | 144 | 0.0 | 2.0 | 0.00 | 0.00 | 0.00 | 60 | 1013.6 |
| 20260503040517 | 47 | 5 | 0.0 | 2.0 | 0.00 | 0.00 | 0.00 | 62 | 1013.6 |
| 20260503040037 | 48 | 40 | 0.0 | 3.0 | 0.00 | 0.00 | 0.00 | 58 | 1013.5 |
| 20260503035520 | 48 | 0 | 0.0 | 3.0 | 0.00 | 0.00 | 0.00 | 61 | 1013.5 |
| 20260503035017 | 48 | 61 | 0.0 | 3.0 | 0.00 | 0.00 | 0.00 | 62 | 1013.5 |
| 20260503034540 | 47 | 40 | 0.0 | 3.0 | 0.00 | 0.00 | 0.00 | 60 | 1013.5 |
| 20260503034018 | 47 | 321 | 0.0 | 2.0 | 0.00 | 0.00 | 0.00 | 62 | 1013.5 |
| 20260503033518 | 47 | 182 | 0.0 | 2.0 | 0.00 | 0.00 | 0.00 | 60 | 1013.5 |
| 20260503033053 | 47 | 142 | 0.0 | 2.0 | 0.00 | 0.00 | 0.00 | 63 | 1013.5 |
| 20260503032518 | 47 | 307 | 0.0 | 2.0 | 0.00 | 0.00 | 0.00 | 63 | 1013.5 |
| 20260503032018 | 48 | 338 | 0.0 | 2.0 | 0.00 | 0.00 | 0.00 | 59 | 1013.5 |
| 20260503031538 | 48 | 217 | 0.0 | 2.0 | 0.00 | 0.00 | 0.00 | 59 | 1013.5 |
| 20260503031018 | 48 | 0 | 0.0 | 1.0 | 0.00 | 0.00 | 0.00 | 58 | 1013.5 |
| 20260503030518 | 49 | 0 | 0.0 | 2.0 | 0.00 | 0.00 | 0.00 | 58 | 1013.5 |
| 20260503030034 | 49 | 0 | 0.0 | 2.0 | 0.00 | 0.00 | 0.00 | 58 | 1013.4 |